GSLV R/B (43242 NORAD) Tracking and Keplerian Element Data

This shows tracking and keplerian element data for the satellite.

Feedback or suggestion? Click here.




ElementValue
Catalog43242
NameGSLV R/B
Epoch Orbit62
Epoch Day116.20946307
Epoch Year2018
RAAN289.1884
Inclination20.5349
Eccentricity0.7314083
Argument of Perigee197.7015
Mean Anonmoly108.2651
Mean Motion2.2990261
Decay Rate0.00047433
L11 43242U 18027B 18116.20946307 .00047433 -47106-6 16979-3 0 9992
L22 43242 20.5349 289.1884 7314083 197.7015 108.2651 2.29902610 628

Live tracking and technical data element details for GSLV R/B (NORAD 43242). GSLV R/B can be tracked NOW for your location showing map with azimuth and elevation plus other details from your city location.

Track the satellite on the map from your city or location and see movement details for azimuth, elevation, latitude, longitude, range, height, and movement on the map or in text.







IsCatalogInMostPopularTable: catalog: 43242, numindb: 51
Update: records affected: 1



GetName: 43242 GSLV R/B

Hit Count: updated at: Tue, 13 Nov 2018 07:26:48 GMT